Weather Roundup
Issued by NWS Springfield, MO

Home | Current Version | Previous Version | Text Only | Print | Product List | Glossary On
Versions: 1 2 3 4 5 6 7 8 9 10 11 12 13 14 15 16 17 18 19 20 21 22 23 24 25 26 27 28 29 30 31 32 33 34 35 36 37 38 39 40 41 42 43 44 45 46 47 48 49 50
000
NZUS99 KSGF 171459
HRRSGF

HOURLY WEATHER
NATIONAL WEATHER SERVICE SPRINGFIELD MO
900 AM CST WED DEC 17 2014

......SGF CWA......

CITY           SKY/WX    TMP DP  RH WIND       PRES   REMARKS
SPRINGFIELD    MOSUNNY   27  23  85 E6        30.30R WCI  20
JOPLIN         CLOUDY    28  24  85 CALM      30.34R
WEST PLAINS    MOSUNNY   28  23  81 NE6       30.31R WCI  22
ROLLA          MOSUNNY   26  21  81 NW6       30.32R WCI  19
OSAGE BEACH    MOSUNNY   27  19  74 N3        30.34S
BRANSON        CLOUDY    28  27  93 CALM      30.32R

......SURROUNDING SGF CWA......

CITY           SKY/WX    TMP DP  RH WIND       PRES   REMARKS
CHANUTE        CLOUDY    27  24  89 E5        30.34R WCI  22
PARSONS        CLOUDY    29  25  85 CALM      30.37R
COFFEYVILLE    CLOUDY    30  25  81 CALM      30.36R
EMPORIA        CLOUDY    24  22  91 E6        30.32R WCI  17
SILOAM SPRINGS CLOUDY    30  21  69 E7        30.30F WCI  23
HARRISON AR    CLOUDY    29  26  89 CALM      30.31R
NEAR YELLVILLE PTSUNNY   28  21  74 CALM      30.34R

......KANSAS AND MISSOURI......

CITY           SKY/WX    TMP DP  RH WIND       PRES   REMARKS
KANSAS CTY INT PTSUNNY   23  17  78 NE5       30.34S WCI  17
DOWNTOWN KC    MOSUNNY   27  18  69 CALM      30.36S
COLUMBIA       PTSUNNY   26  21  81 W5        30.34R WCI  20
SEDALIA        SUNNY     26  21  81 N6        30.35S WCI  19
ST JOSEPH      PTSUNNY   22  17  81 N5        30.37R WCI  16
ST LOUIS       PTSUNNY   32  23  69 W6        30.34R WCI  26
SPIRIT OF STL  PTSUNNY   32  23  69 NW6       30.34R WCI  26
KIRKSVILLE     CLOUDY    23  19  85 N8        30.34S WCI  14
WICHITA        CLOUDY    30  23  75 E10       30.26F WCI  21
TOPEKA         CLOUDY    25  18  74 E7        30.35F WCI  17
OLATHE         CLOUDY    26  20  77 CALM      30.34R

......TENNESSEE......

CITY           SKY/WX    TMP DP  RH WIND       PRES   REMARKS
MEMPHIS        CLOUDY    37  31  78 N7        30.35R WCI  32
NASHVILLE      CLOUDY    37  31  78 N8        30.32R WCI  31

......ARKANSAS.......

CITY           SKY/WX    TMP DP  RH WIND       PRES   REMARKS
FAYETTEVILLE   CLOUDY    30  27  88 CALM      30.30F
FT SMITH       CLOUDY    33  30  88 E7        30.32F WCI  27
LITTLE ROCK    CLOUDY    35  26  69 NE7       30.37R WCI  29

......OKLAHOMA.......

CITY           SKY/WX    TMP DP  RH WIND       PRES   REMARKS
TULSA          LGT RAIN  35  28  75 NE3       30.33S
PONCA CITY     CLOUDY    33  26  75 E10       30.28F WCI  25
MCALESTER      CLOUDY    37  29  72 NE3       30.30S
OKLAHOMA CITY  LGT RAIN  37  31  78 E14       30.24F WCI  28

......IOWA............

CITY           SKY/WX    TMP DP  RH WIND       PRES   REMARKS
DES MOINES     MOSUNNY   17  10  74 NW6       30.35S WCI   9
QUAD CITIES    CLOUDY    23  16  74 NW10      30.31R WCI  12

......ILLINOIS........

CITY           SKY/WX    TMP DP  RH WIND       PRES   REMARKS
QUINCY         CLOUDY    22  16  78 N12       30.34R WCI  10
CHICAGO        CLOUDY    25  17  72 NW10      30.22S WCI  15




USA.gov is the U.S. government's official web portal to all federal, state and local government web resources and services.